FW4012 Weather Reports


Display with metric or nautical units.
time (UTC)temp
F
wind
direction
speed
MPH
gust
MPH
rain 1hr
in
rain 24hr
in
rain mn
in
humidity
%
barometer
mb
20260510105742 59 324 4.0 6.0 0.39 2.52 0.64 93 1013.3
20260510105239 58 304 4.0 6.0 0.39 2.48 0.63 93 1013.3
20260510104734 59 288 4.0 7.0 0.39 2.48 0.63 93 1013.3
20260510104231 58 320 4.0 6.0 0.39 2.48 0.63 93 1013.3
20260510103728 58 337 3.0 6.0 0.39 2.44 0.62 93 1013.4
20260510103227 58 320 3.0 6.0 0.35 2.40 0.61 93 1013.5
20260510102727 58 323 3.0 4.0 0.39 2.40 0.61 93 1013.4
20260510102226 58 9 2.0 5.0 0.39 2.36 0.60 93 1013.3
20260510101732 58 10 3.0 8.0 0.31 2.28 0.58 93 1013.5
20260510101231 58 343 4.0 8.0 0.28 2.20 0.56 93 1013.5
20260510100725 58 319 3.0 6.0 0.24 2.17 0.55 93 1013.4
20260510100245 58 20 3.0 6.0 0.24 2.13 0.54 93 1013.5
20260510095748 58 315 4.0 6.0 0.28 2.13 0.54 93 1013.4
20260510095229 58 325 4.0 6.0 0.31 2.09 0.53 93 1013.4
20260510094753 58 344 2.0 5.0 0.35 2.09 0.53 93 1013.4
20260509233742 54 342 3.0 3.0 0.00 0.00 0.00 86 1013.7
20260509233257 54 343 2.0 3.0 0.00 0.00 0.00 86 1013.7
20260509232747 54 343 2.0 3.0 0.00 0.00 0.00 86 1013.8
20260509232250 54 343 1.0 3.0 0.00 0.00 0.00 86 1013.9
20260509231742 54 343 1.0 3.0 0.00 0.00 0.00 86 1013.9
20260509231239 54 344 0.0 1.0 0.00 0.00 0.00 85 1013.9
20260509230735 54 344 0.0 3.0 0.00 0.00 0.00 85 1013.9
20260509230232 55 344 2.0 3.0 0.00 0.00 0.00 86 1013.9
20260509225733 55 342 1.0 3.0 0.00 0.00 0.00 86 1013.8
20260509225248 55 342 1.0 3.0 0.00 0.00 0.00 86 1013.8
20260509224724 55 342 1.0 3.0 0.00 0.00 0.00 86 1013.7
20260509224225 54 342 2.0 3.0 0.00 0.00 0.00 85 1013.8
20260509223724 54 342 1.0 3.0 0.00 0.00 0.00 85 1013.9
20260509223223 54 342 1.0 3.0 0.00 0.00 0.00 85 1013.8
20260509222741 54 344 1.0 3.0 0.00 0.00 0.00 85 1013.9
20260509222238 54 344 2.0 3.0 0.00 0.00 0.00 85 1013.9
20260509221738 54 344 1.0 2.0 0.00 0.00 0.00 84 1013.9
20260509221235 54 344 0.0 2.0 0.00 0.00 0.00 84 1013.8
20260509220759 54 344 1.0 2.0 0.00 0.00 0.00 84 1013.9
20260509220235 55 344 0.0 1.0 0.00 0.00 0.00 84 1013.8
20260509215735 55 344 0.0 0.0 0.00 0.00 0.00 83 1013.8
20260509215256 55 344 0.0 1.0 0.00 0.00 0.00 83 1013.7
20260509214735 55 344 1.0 1.0 0.00 0.00 0.00 83 1013.8
20260509214254 55 344 0.0 2.0 0.00 0.00 0.00 83 1013.8
20260509213731 55 344 0.0 3.0 0.00 0.00 0.00 83 1013.8
20260509213231 55 344 1.0 3.0 0.00 0.00 0.00 83 1013.8
20260509212731 55 227 0.0 0.0 0.00 0.00 0.00 83 1013.8
20260509212227 55 227 0.0 0.0 0.00 0.00 0.00 82 1013.7
20260509211723 55 227 0.0 0.0 0.00 0.00 0.00 82 1013.7
20260509211252 56 227 0.0 0.0 0.00 0.00 0.00 82 1013.7
20260509210730 56 227 0.0 0.0 0.00 0.00 0.00 82 1013.7
20260509210231 56 227 0.0 0.0 0.00 0.00 0.00 82 1013.6
20260509205749 56 227 0.0 0.0 0.00 0.00 0.00 81 1013.7
20260509205227 56 227 0.0 0.0 0.00 0.00 0.00 81 1013.7
20260509204725 56 227 0.0 0.0 0.00 0.00 0.00 81 1013.8
20260509204225 56 227 0.0 0.0 0.00 0.00 0.00 81 1013.6
20260509203723 56 227 0.0 0.0 0.00 0.00 0.00 80 1013.6
20260509203243 56 227 0.0 0.0 0.00 0.00 0.00 80 1013.7
20260509202747 57 227 0.0 0.0 0.00 0.00 0.00 80 1013.6
20260509202245 57 227 0.0 0.0 0.00 0.00 0.00 80 1013.6
20260509201723 57 227 0.0 0.0 0.00 0.00 0.00 79 1013.6
20260509201223 57 227 0.0 0.0 0.00 0.00 0.00 79 1013.6
20260509200724 57 227 0.0 0.0 0.00 0.00 0.00 79 1013.5
20260509200243 57 227 0.0 0.0 0.00 0.00 0.00 78 1013.5
20260509195741 57 227 0.0 0.0 0.00 0.00 0.00 78 1013.5
20260509195249 58 227 0.0 0.0 0.00 0.00 0.00 77 1013.4
20260509194748 58 227 0.0 0.0 0.00 0.00 0.00 77 1013.4
20260509194241 58 227 0.0 0.0 0.00 0.00 0.00 76 1013.2
20260509193740 58 227 0.0 0.0 0.00 0.00 0.00 76 1013.1
20260509193240 59 227 0.0 0.0 0.00 0.00 0.00 77 1013.1
20260509192739 59 227 0.0 0.0 0.00 0.00 0.00 76 1013.1
20260509192240 60 227 0.0 0.0 0.00 0.00 0.00 76 1013.1
20260509191739 60 227 0.0 0.0 0.00 0.00 0.00 75 1013.0
20260509191239 61 227 0.0 0.0 0.00 0.00 0.00 74 1013.0
20260509190739 62 227 0.0 0.0 0.00 0.00 0.00 73 1013.0
20260509190259 62 227 0.0 0.0 0.00 0.00 0.00 72 1013.0
20260509185736 63 227 0.0 0.0 0.00 0.00 0.00 71 1013.0
20260509185231 63 227 0.0 0.0 0.00 0.00 0.00 71 1013.0
20260509184728 64 227 0.0 0.0 0.00 0.00 0.00 70 1013.0
20260509184238 65 227 0.0 0.0 0.00 0.00 0.00 68 1013.0
20260509183736 65 227 0.0 0.0 0.00 0.00 0.00 66 1013.1
20260509183237 66 227 0.0 0.0 0.00 0.00 0.00 66 1013.1
20260509182737 67 227 0.0 0.0 0.00 0.00 0.00 65 1013.1
20260509182237 67 227 0.0 0.0 0.00 0.00 0.00 64 1013.0
20260509181737 68 227 0.0 0.0 0.00 0.00 0.00 63 1013.0
20260509181235 69 227 0.0 0.0 0.00 0.00 0.00 61 1012.9
20260509180738 69 227 0.0 0.0 0.00 0.00 0.00 60 1012.9
20260509180237 70 227 0.0 0.0 0.00 0.00 0.00 57 1012.9
20260509175735 70 227 0.0 0.0 0.00 0.00 0.00 58 1012.8
20260509175255 71 227 0.0 0.0 0.00 0.00 0.00 57 1012.9
20260509174733 71 227 0.0 1.0 0.00 0.00 0.00 56 1012.8
20260509174231 72 227 0.0 2.0 0.00 0.00 0.00 54 1012.9
20260509173758 72 227 1.0 2.0 0.00 0.00 0.00 53 1012.9
20260509173257 72 227 1.0 2.0 0.00 0.00 0.00 47 1012.8
20260509172729 73 227 2.0 3.0 0.00 0.00 0.00 45 1012.9
20260509172228 73 227 2.0 3.0 0.00 0.00 0.00 45 1013.0
20260509171728 73 227 2.0 3.0 0.00 0.00 0.00 45 1012.9
20260509171226 73 227 2.0 4.0 0.00 0.00 0.00 44 1012.9
20260509170745 74 227 2.0 4.0 0.00 0.00 0.00 43 1012.9
20260509170233 74 211 1.0 3.0 0.00 0.00 0.00 42 1012.9
20260509165732 74 211 1.0 4.0 0.00 0.00 0.00 43 1012.8
20260509165249 74 211 2.0 4.0 0.00 0.00 0.00 45 1012.9
20260509164746 74 229 2.0 7.0 0.00 0.00 0.00 43 1012.9
20260509164245 75 224 2.0 7.0 0.00 0.00 0.00 41 1013.0
20260509163744 75 244 2.0 4.0 0.00 0.00 0.00 41 1013.0
20260509163300 75 282 2.0 5.0 0.00 0.00 0.00 41 1013.0
20260509162737 75 207 2.0 5.0 0.00 0.00 0.00 40 1013.0
20260509162239 75 217 2.0 7.0 0.00 0.00 0.00 44 1013.1
20260509161737 75 217 3.0 7.0 0.00 0.00 0.00 42 1013.1
20260509161236 76 222 2.0 7.0 0.00 0.00 0.00 42 1013.1
20260509160736 76 196 3.0 7.0 0.00 0.00 0.00 42 1013.2
20260509160258 76 251 3.0 6.0 0.00 0.00 0.00 45 1013.2
20260509155807 75 197 3.0 7.0 0.00 0.04 0.00 43 1013.2
20260509155240 75 138 3.0 8.0 0.00 0.04 0.00 44 1013.2
20260509154734 75 180 3.0 9.0 0.00 0.04 0.00 43 1013.3
20260509154232 75 242 6.0 9.0 0.00 0.04 0.00 42 1013.3
20260509153729 75 244 5.0 10.0 0.00 0.04 0.00 42 1013.4
20260509153228 75 202 5.0 10.0 0.00 0.04 0.00 44 1013.3
20260509152729 75 242 2.0 8.0 0.00 0.04 0.00 45 1013.3
20260509152230 75 101 3.0 8.0 0.00 0.04 0.00 45 1013.4
20260509151728 75 161 5.0 8.0 0.00 0.04 0.00 44 1013.4
20260509151229 76 174 5.0 8.0 0.00 0.04 0.00 46 1013.5
20260509150728 76 190 4.0 8.0 0.00 0.04 0.00 46 1013.3
20260509150227 75 167 4.0 9.0 0.00 0.04 0.00 49 1013.3
20260509145727 75 235 4.0 10.0 0.00 0.28 0.00 48 1013.4
20260509145229 76 250 3.0 10.0 0.00 0.28 0.00 45 1013.3
20260509144723 76 264 6.0 10.0 0.00 0.28 0.00 46 1013.4
20260509144224 75 111 4.0 9.0 0.00 0.28 0.00 46 1013.3
20260509143743 75 219 5.0 9.0 0.00 0.28 0.00 48 1013.3
20260509143241 75 110 2.0 12.0 0.00 0.28 0.00 45 1013.3
20260509142758 75 132 5.0 12.0 0.00 0.28 0.00 46 1013.4
20260509142236 76 109 7.0 11.0 0.00 0.28 0.00 47 1013.4
20260509141735 76 164 2.0 9.0 0.00 0.28 0.00 45 1013.4
20260509141235 76 192 5.0 9.0 0.00 0.28 0.00 48 1013.6
20260509140758 76 209 3.0 9.0 0.00 0.28 0.00 49 1013.6
20260509140234 74 153 3.0 8.0 0.00 0.28 0.00 49 1013.6
20260509135734 73 130 4.0 9.0 0.00 0.47 0.00 48 1013.7
20260509135250 74 109 7.0 11.0 0.00 0.47 0.00 48 1013.8
20260509134727 75 150 4.0 11.0 0.00 0.47 0.00 48 1013.9
20260509134225 75 214 2.0 8.0 0.00 0.47 0.00 50 1014.0
20260509133723 75 245 5.0 8.0 0.00 0.47 0.00 48 1014.1
20260509133242 75 171 4.0 9.0 0.00 0.47 0.00 47 1014.2
20260509132740 74 193 3.0 13.0 0.00 0.47 0.00 49 1014.2
20260509132239 73 178 8.0 13.0 0.00 0.47 0.00 50 1014.3
20260509131733 73 117 5.0 10.0 0.00 0.47 0.00 48 1014.2
20260509131253 74 195 6.0 10.0 0.00 0.47 0.00 49 1014.3
20260509130731 75 175 5.0 10.0 0.00 0.47 0.00 49 1014.3
20260509130230 74 273 3.0 10.0 0.00 0.47 0.00 48 1014.4
20260509125737 74 248 4.0 8.0 0.00 0.47 0.00 47 1014.4
20260509125236 74 260 4.0 9.0 0.00 0.47 0.00 46 1014.4
20260509124735 74 269 3.0 9.0 0.00 0.47 0.00 47 1014.5
20260509124234 74 214 4.0 9.0 0.00 0.47 0.00 49 1014.5
20260509123733 74 189 3.0 8.0 0.00 0.47 0.00 48 1014.3
20260509123254 74 144 4.0 8.0 0.00 0.47 0.00 52 1014.4
20260509122743 74 213 4.0 8.0 0.00 0.47 0.00 52 1014.4
20260509122241 73 328 4.0 9.0 0.00 0.47 0.00 56 1014.3
20260509121738 73 245 4.0 9.0 0.00 0.47 0.00 52 1014.6
20260509121237 73 207 4.0 9.0 0.00 0.47 0.00 47 1014.5
20260509120757 74 45 1.0 5.0 0.00 0.47 0.00 54 1014.5
20260509120237 74 288 3.0 5.0 0.00 0.47 0.00 48 1014.5
20260509115736 74 271 2.0 9.0 0.00 0.47 0.00 52 1014.6
20260509115236 73 300 5.0 9.0 0.00 0.47 0.00 52 1014.5
20260509114737 74 240 6.0 9.0 0.00 0.47 0.00 48 1014.7
20260509114234 73 304 3.0 6.0 0.00 0.47 0.00 48 1014.7
20260509113731 72 343 2.0 4.0 0.00 0.47 0.00 51 1014.8
20260509113225 72 294 0.0 7.0 0.00 0.47 0.00 56 1014.8
20260509112724 72 138 4.0 7.0 0.00 0.47 0.00 53 1014.9
20260509112225 72 134 3.0 6.0 0.00 0.47 0.00 53 1014.9
20260509111723 71 256 0.0 4.0 0.00 0.47 0.00 56 1015.1
20260509111244 69 256 2.0 4.0 0.00 0.47 0.00 55 1015.0
20260509110723 70 158 2.0 10.0 0.00 0.47 0.00 55 1015.1
20260509110223 70 275 6.0 10.0 0.00 0.47 0.00 54 1015.3